EW9582 Weather Reports


time (UTC)temp
C
wind
direction
speed
KPH
gust
KPH
rain 1hr
cm
rain 24hr
cm
rain mn
cm
humidity
%
barometer
mb
20260506231528 27 115 11.3 17.7 0.00 0.00 0.00 73 1012.7
20260506230026 27 84 11.3 17.7 0.00 0.00 0.00 73 1012.7
20260506224523 27 104 14.5 22.5 0.00 0.00 0.00 72 1012.7
20260506223021 27 125 12.9 19.3 0.00 0.00 0.00 73 1012.7
20260506221520 27 79 12.9 22.5 0.00 0.00 0.00 72 1012.8
20260506220027 27 132 14.5 20.9 0.00 0.00 0.00 72 1013.0
20260506214518 27 75 14.5 24.1 0.00 0.00 0.00 72 1013.1
20260506213017 27 78 16.1 25.7 0.00 0.00 0.00 72 1013.0
20260506211522 28 102 14.5 22.5 0.00 0.00 0.00 70 1013.3
20260506210025 28 94 16.1 25.7 0.00 0.00 0.00 71 1013.3
20260506204513 28 104 16.1 22.5 0.00 0.00 0.00 68 1013.5
20260506203011 28 87 12.9 20.9 0.00 0.00 0.00 69 1013.6
20260506201510 28 121 12.9 20.9 0.00 0.00 0.00 70 1013.8
20260506200018 28 84 14.5 22.5 0.00 0.00 0.00 71 1013.9
20260506194507 28 103 14.5 22.5 0.00 0.00 0.00 70 1014.0
20260506193007 28 113 14.5 24.1 0.00 0.00 0.00 71 1014.0
20260506191505 28 97 17.7 24.1 0.00 0.00 0.00 70 1014.2
20260506190003 28 109 12.9 22.5 0.00 0.00 0.00 72 1014.3
20260506184501 28 109 16.1 24.1 0.00 0.00 0.00 71 1014.4
20260506183001 28 86 16.1 24.1 0.00 0.00 0.00 72 1014.4
20260506181559 28 105 14.5 22.5 0.00 0.00 0.00 72 1014.5
20260506180059 28 103 17.7 25.7 0.00 0.00 0.00 72 1014.3
20260506174557 28 92 16.1 24.1 0.00 0.00 0.00 70 1014.4
20260506173108 28 94 14.5 24.1 0.00 0.00 0.00 71 1014.4
20260506171557 28 81 12.9 25.7 0.00 0.00 0.00 73 1014.6
20260506170059 28 93 14.5 22.5 0.00 0.00 0.00 71 1014.5
20260506164609 28 85 12.9 22.5 0.00 0.00 0.00 71 1014.5
20260506163055 28 88 11.3 19.3 0.00 0.00 0.00 72 1014.5
20260506161550 28 109 12.9 17.7 0.00 0.00 0.00 72 1014.4
20260506154524 30 136 4.8 6.4 0.00 0.00 0.00 61 1014.6
20260506153020 29 180 1.6 6.4 0.00 0.00 0.00 60 1014.4
20260506151519 28 166 0.0 4.8 0.00 0.00 0.00 61 1014.4
20260506150017 27 331 3.2 8.0 0.00 0.00 0.00 63 1014.3
20260506144510 26 329 8.0 11.3 0.00 0.00 0.00 66 1014.2
20260506143007 25 334 8.0 11.3 0.00 0.00 0.00 70 1014.1
20260506141503 23 318 8.0 12.9 0.00 0.00 0.00 72 1014.0
20260506140057 22 306 9.7 14.5 0.00 0.00 0.00 76 1013.9
20260506134555 21 324 8.0 12.9 0.00 0.00 0.00 80 1013.8
20260506133103 20 303 9.7 12.9 0.00 0.00 0.00 83 1013.7
20260506131556 20 314 4.8 9.7 0.00 0.00 0.00 85 1013.6
20260506130051 20 326 4.8 9.7 0.00 0.00 0.00 85 1013.6
20260506124550 20 322 3.2 6.4 0.00 0.00 0.00 85 1013.5
20260506123049 20 329 3.2 12.9 0.00 0.00 0.00 85 1013.3
20260506121558 20 281 4.8 11.3 0.00 0.00 0.00 84 1013.0
20260506120109 20 288 6.4 8.0 0.00 0.00 0.00 84 1012.8
20260506114546 19 311 3.2 9.7 0.00 0.00 0.00 85 1012.6
20260506113042 19 298 4.8 8.0 0.00 0.00 0.00 84 1012.5
20260506111540 20 317 0.0 4.8 0.00 0.00 0.00 82 1012.5
20260506104538 20 11 0.0 3.2 0.00 0.00 0.00 84 1012.4
20260506103036 20 300 0.0 6.4 0.00 0.00 0.00 83 1012.3
20260506101535 20 315 6.4 8.0 0.00 0.00 0.00 83 1012.2
20260506100034 20 313 6.4 9.7 0.00 0.00 0.00 84 1012.2
20260506094536 20 304 6.4 8.0 0.00 0.00 0.00 84 1012.2
20260506093044 20 315 6.4 8.0 0.00 0.00 0.00 84 1012.2
20260506091531 20 305 6.4 8.0 0.00 0.00 0.00 84 1012.4
20260506090028 20 292 6.4 11.3 0.00 0.00 0.00 84 1012.2
20260506084527 21 300 6.4 9.7 0.00 0.00 0.00 84 1012.3
20260506083024 21 302 6.4 8.0 0.00 0.00 0.00 84 1012.4
20260506081524 21 288 6.4 9.7 0.00 0.00 0.00 84 1012.4
20260506073018 21 302 4.8 6.4 0.00 0.00 0.00 84 1012.6
20260506071516 21 300 3.2 6.4 0.00 0.00 0.00 82 1012.7
20260506061513 22 319 0.0 3.2 0.00 0.00 0.00 82 1013.3
20260506044512 24 286 1.6 6.4 0.00 0.00 0.00 79 1013.2
20260506043013 24 278 3.2 6.4 0.00 0.00 0.00 79 1013.0
20260506041507 25 211 0.0 3.2 0.00 0.00 0.00 79 1012.7
20260506040006 25 172 0.0 0.0 0.00 0.00 0.00 78 1012.7
20260506034506 25 121 0.0 1.6 0.00 0.00 0.00 78 1012.6
20260506033006 25 101 0.0 4.8 0.00 0.00 0.00 78 1012.7
20260506031512 25 109 1.6 6.4 0.00 0.00 0.00 77 1012.5
20260506030007 25 101 1.6 4.8 0.00 0.00 0.00 77 1012.4
20260506024504 25 107 3.2 8.0 0.00 0.00 0.00 73 1012.2
20260506023004 25 101 3.2 9.7 0.00 0.00 0.00 72 1012.1
20260506021504 25 74 4.8 9.7 0.00 0.00 0.00 73 1012.1
20260506020003 25 120 4.8 9.7 0.00 0.00 0.00 74 1012.0
20260506014505 25 117 4.8 9.7 0.00 0.00 0.00 74 1011.8
20260506013003 26 85 6.4 11.3 0.00 0.00 0.00 74 1011.8
20260506011503 26 121 4.8 11.3 0.00 0.00 0.00 73 1011.7
20260506004628 26 122 8.0 16.1 0.00 0.00 0.00 72 1011.5
20260506003100 26 114 14.5 17.7 0.00 0.00 0.00 71 1011.4
20260506001601 26 103 11.3 16.1 0.00 0.00 0.00 71 1011.4
20260506000058 26 126 9.7 17.7 0.00 0.00 0.00 71 1011.3
20260505234618 26 126 12.9 22.5 0.00 0.00 0.00 70 1011.4
20260505233058 27 90 14.5 22.5 0.00 0.00 0.00 70 1011.2